Time,TemperatureF,DewpointF,PressureIn,WindDirection,WindDirectionDegrees,WindSpeedMPH,WindSpeedGustMPH,Humidity,HourlyPrecipIn,Conditions,Clouds,dailyrainin,SolarRadiationWatts/m^2,SoftwareType,DateUTC
2013-02-21 00:06:00,41.8,32.4,30.05,West,275,0.0,0.0,69,0.00,,,0.00,0,Wunderground v.1.15,2013-02-21 08:06:00,
2013-02-21 00:11:00,41.8,32.4,30.05,West,275,0.0,0.0,69,0.00,,,0.00,0,Wunderground v.1.15,2013-02-21 08:11:00,
2013-02-21 00:21:00,41.8,31.6,30.06,West,275,0.0,0.0,67,0.00,,,0.00,0,Wunderground v.1.15,2013-02-21 08:21:00,
2013-02-21 00:26:00,41.9,31.7,30.06,West,275,0.0,0.0,67,0.00,,,0.00,0,Wunderground v.1.15,2013-02-21 08:26:00,
2013-02-21 00:36:00,41.9,31.7,30.06,West,275,0.0,0.0,67,0.00,,,0.00,0,Wunderground v.1.15,2013-02-21 08:36:00,
2013-02-21 00:46:00,41.9,31.7,30.06,West,275,0.0,0.0,67,0.00,,,0.00,0,Wunderground v.1.15,2013-02-21 08:46:00,
2013-02-21 00:56:00,41.8,31.3,30.06,West,275,0.0,0.0,66,0.00,,,0.00,0,Wunderground v.1.15,2013-02-21 08:56:00,
2013-02-21 01:01:00,41.8,31.3,30.06,West,275,0.0,0.0,66,0.00,,,0.00,0,Wunderground v.1.15,2013-02-21 09:01:00,
2013-02-21 01:11:00,41.9,31.0,30.06,West,275,0.0,0.0,65,0.00,,,0.00,0,Wunderground v.1.15,2013-02-21 09:11:00,
2013-02-21 01:21:00,42.1,31.2,30.06,NNW,344,0.0,1.0,65,0.00,,,0.00,0,Wunderground v.1.15,2013-02-21 09:21:00,
2013-02-21 01:31:00,42.2,30.9,30.06,NNW,331,0.0,0.0,64,0.00,,,0.00,0,Wunderground v.1.15,2013-02-21 09:31:00,
2013-02-21 01:36:00,42.2,30.5,30.06,NNW,331,0.0,0.0,63,0.00,,,0.00,0,Wunderground v.1.15,2013-02-21 09:36:00,
2013-02-21 01:46:00,42.1,30.8,30.06,NNW,331,0.0,0.0,64,0.00,,,0.00,0,Wunderground v.1.15,2013-02-21 09:46:00,
2013-02-21 01:51:00,41.9,30.6,30.06,NNW,331,0.0,0.0,64,0.00,,,0.00,0,Wunderground v.1.15,2013-02-21 09:51:00,
2013-02-21 01:56:00,41.9,30.6,30.06,NNW,331,0.0,0.0,64,0.00,,,0.00,0,Wunderground v.1.15,2013-02-21 09:56:00,
2013-02-21 02:06:00,41.9,30.2,30.05,NNW,331,0.0,0.0,63,0.00,,,0.00,0,Wunderground v.1.15,2013-02-21 10:06:00,
2013-02-21 02:11:00,42.1,30.0,30.05,NNW,331,0.0,0.0,62,0.00,,,0.00,0,Wunderground v.1.15,2013-02-21 10:11:00,
2013-02-21 02:16:00,42.2,30.1,30.05,NNW,331,0.0,0.0,62,0.00,,,0.00,0,Wunderground v.1.15,2013-02-21 10:16:00,
2013-02-21 02:26:00,41.8,30.1,30.05,NNW,331,0.0,0.0,63,0.00,,,0.00,0,Wunderground v.1.15,2013-02-21 10:26:00,
2013-02-21 02:36:00,41.1,30.2,30.05,NNW,331,0.0,0.0,65,0.00,,,0.00,0,Wunderground v.1.15,2013-02-21 10:36:00,
2013-02-21 02:41:00,41.1,29.8,30.05,NNW,331,0.0,0.0,64,0.00,,,0.00,0,Wunderground v.1.15,2013-02-21 10:41:00,
2013-02-21 02:46:00,41.1,30.2,30.05,NNW,331,0.0,0.0,65,0.00,,,0.00,0,Wunderground v.1.15,2013-02-21 10:46:00,
2013-02-21 02:56:00,40.9,30.0,30.05,NNW,331,0.0,0.0,65,0.00,,,0.00,0,Wunderground v.1.15,2013-02-21 10:56:00,
2013-02-21 03:01:00,40.9,30.0,30.05,NNW,331,0.0,0.0,65,0.00,,,0.00,0,Wunderground v.1.15,2013-02-21 11:01:00,
2013-02-21 03:11:00,41.1,30.6,30.05,NNW,331,0.0,0.0,66,0.00,,,0.00,0,Wunderground v.1.15,2013-02-21 11:11:00,
2013-02-21 03:16:00,41.2,30.7,30.05,NNW,331,0.0,0.0,66,0.00,,,0.00,0,Wunderground v.1.15,2013-02-21 11:16:00,
2013-02-21 03:26:00,40.9,30.8,30.05,NNW,331,0.0,0.0,67,0.00,,,0.00,0,Wunderground v.1.15,2013-02-21 11:26:00,
2013-02-21 03:31:00,40.8,31.1,30.06,NNW,331,0.0,0.0,68,0.00,,,0.00,0,Wunderground v.1.15,2013-02-21 11:31:00,
2013-02-21 03:36:00,40.8,31.4,30.06,NNW,331,0.0,0.0,69,0.00,,,0.00,0,Wunderground v.1.15,2013-02-21 11:36:00,
2013-02-21 03:46:00,41.1,31.7,30.05,NNW,331,0.0,0.0,69,0.00,,,0.00,0,Wunderground v.1.15,2013-02-21 11:46:00,
2013-02-21 03:51:00,41.2,31.8,30.05,NNW,331,0.0,0.0,69,0.00,,,0.00,0,Wunderground v.1.15,2013-02-21 11:51:00,
2013-02-21 04:01:00,41.5,32.4,30.06,NNW,331,0.0,0.0,70,0.00,,,0.00,0,Wunderground v.1.15,2013-02-21 12:01:00,
2013-02-21 04:06:00,41.6,32.5,30.06,NNW,331,0.0,0.0,70,0.00,,,0.00,0,Wunderground v.1.15,2013-02-21 12:06:00,
2013-02-21 04:11:00,41.6,32.5,30.06,NNW,331,0.0,0.0,70,0.00,,,0.00,0,Wunderground v.1.15,2013-02-21 12:11:00,
2013-02-21 04:16:00,41.5,32.8,30.06,NNW,331,0.0,0.0,71,0.00,,,0.00,0,Wunderground v.1.15,2013-02-21 12:16:00,
2013-02-21 04:26:00,41.2,32.9,30.06,NNW,331,0.0,0.0,72,0.00,,,0.00,0,Wunderground v.1.15,2013-02-21 12:26:00,
2013-02-21 04:31:00,41.3,33.0,30.06,NNW,331,0.0,0.0,72,0.00,,,0.00,0,Wunderground v.1.15,2013-02-21 12:31:00,
2013-02-21 04:36:00,41.5,33.1,30.06,NNW,331,0.0,0.0,72,0.00,,,0.00,0,Wunderground v.1.15,2013-02-21 12:36:00,
2013-02-21 04:46:00,41.6,33.2,30.07,NW,326,0.0,0.0,72,0.00,,,0.00,0,Wunderground v.1.15,2013-02-21 12:46:00,
2013-02-21 04:51:00,41.3,32.6,30.07,NW,326,0.0,0.0,71,0.00,,,0.00,0,Wunderground v.1.15,2013-02-21 12:51:00,
2013-02-21 04:56:00,40.9,32.6,30.07,NW,326,0.0,0.0,72,0.00,,,0.00,0,Wunderground v.1.15,2013-02-21 12:56:00,
2013-02-21 05:06:00,40.3,32.3,30.07,NW,326,0.0,0.0,73,0.00,,,0.00,0,Wunderground v.1.15,2013-02-21 13:06:00,
2013-02-21 05:11:00,40.2,32.2,30.07,NW,326,0.0,0.0,73,0.00,,,0.00,0,Wunderground v.1.15,2013-02-21 13:11:00,
2013-02-21 05:16:00,40.2,32.2,30.07,NW,326,0.0,0.0,73,0.00,,,0.00,0,Wunderground v.1.15,2013-02-21 13:16:00,
2013-02-21 05:21:00,40.5,32.5,30.07,NW,326,0.0,0.0,73,0.00,,,0.00,0,Wunderground v.1.15,2013-02-21 13:21:00,
2013-02-21 05:26:00,40.6,32.6,30.07,NW,326,0.0,0.0,73,0.00,,,0.00,0,Wunderground v.1.15,2013-02-21 13:26:00,
2013-02-21 05:36:00,40.6,32.6,30.08,NW,326,0.0,0.0,73,0.00,,,0.00,0,Wunderground v.1.15,2013-02-21 13:36:00,
2013-02-21 05:46:00,40.8,32.8,30.08,North,358,0.0,0.0,73,0.00,,,0.00,0,Wunderground v.1.15,2013-02-21 13:46:00,
2013-02-21 05:56:00,40.6,33.0,30.08,WNW,285,0.0,0.0,74,0.00,,,0.00,0,Wunderground v.1.15,2013-02-21 13:56:00,
2013-02-21 06:06:00,40.6,33.0,30.09,WNW,285,0.0,0.0,74,0.00,,,0.00,0,Wunderground v.1.15,2013-02-21 14:06:00,
2013-02-21 06:16:00,40.3,32.7,30.09,WNW,285,0.0,0.0,74,0.00,,,0.00,0,Wunderground v.1.15,2013-02-21 14:16:00,
2013-02-21 06:21:00,40.2,32.6,30.09,WNW,285,0.0,0.0,74,0.00,,,0.00,0,Wunderground v.1.15,2013-02-21 14:21:00,
2013-02-21 06:31:00,40.2,32.6,30.09,NNW,328,0.0,1.0,74,0.00,,,0.00,0,Wunderground v.1.15,2013-02-21 14:31:00,
2013-02-21 06:36:00,40.6,32.3,30.09,NNW,328,1.0,1.0,72,0.00,,,0.00,0,Wunderground v.1.15,2013-02-21 14:36:00,
2013-02-21 06:46:00,41.1,32.4,30.10,NNW,328,0.0,0.0,71,0.00,,,0.00,0,Wunderground v.1.15,2013-02-21 14:46:00,
2013-02-21 06:51:00,40.9,32.2,30.10,NNW,328,0.0,0.0,71,0.00,,,0.00,0,Wunderground v.1.15,2013-02-21 14:51:00,
2013-02-21 06:56:00,40.8,32.5,30.10,NNW,328,0.0,0.0,72,0.00,,,0.00,5,Wunderground v.1.15,2013-02-21 14:56:00,
2013-02-21 07:06:00,40.5,32.5,30.10,NNW,328,0.0,0.0,73,0.00,,,0.00,12,Wunderground v.1.15,2013-02-21 15:06:00,
2013-02-21 07:11:00,40.5,32.5,30.10,NNW,328,0.0,0.0,73,0.00,,,0.00,16,Wunderground v.1.15,2013-02-21 15:11:00,
2013-02-21 07:16:00,40.8,32.5,30.11,NNW,328,0.0,0.0,72,0.00,,,0.00,19,Wunderground v.1.15,2013-02-21 15:16:00,
2013-02-21 07:21:00,41.1,32.4,30.11,NNW,328,0.0,0.0,71,0.00,,,0.00,21,Wunderground v.1.15,2013-02-21 15:21:00,
2013-02-21 07:26:00,41.5,32.8,30.11,NNW,328,0.0,0.0,71,0.00,,,0.00,25,Wunderground v.1.15,2013-02-21 15:26:00,
2013-02-21 07:36:00,42.2,33.1,30.12,NNW,328,0.0,0.0,70,0.00,,,0.00,32,Wunderground v.1.15,2013-02-21 15:36:00,
2013-02-21 07:41:00,42.3,33.2,30.12,NNW,328,0.0,0.0,70,0.00,,,0.00,35,Wunderground v.1.15,2013-02-21 15:41:00,
2013-02-21 07:46:00,42.6,33.5,30.12,NNW,328,0.0,0.0,70,0.00,,,0.00,42,Wunderground v.1.15,2013-02-21 15:46:00,
2013-02-21 07:56:00,43.5,33.6,30.12,NNW,328,0.0,0.0,68,0.00,,,0.00,47,Wunderground v.1.15,2013-02-21 15:56:00,
2013-02-21 08:01:00,44.1,33.8,30.13,NNW,328,0.0,0.0,67,0.00,,,0.00,49,Wunderground v.1.15,2013-02-21 16:01:00,
2013-02-21 08:11:00,44.5,34.2,30.13,NNW,328,0.0,0.0,67,0.00,,,0.00,116,Wunderground v.1.15,2013-02-21 16:11:00,
2013-02-21 08:21:00,45.1,33.6,30.14,NNW,332,0.0,0.0,64,0.00,,,0.00,209,Wunderground v.1.15,2013-02-21 16:21:00,
2013-02-21 08:26:00,45.2,33.7,30.14,NNW,335,0.0,0.0,64,0.00,,,0.00,244,Wunderground v.1.15,2013-02-21 16:26:00,
2013-02-21 08:36:00,45.8,33.5,30.15,NNW,335,0.0,0.0,62,0.00,,,0.00,294,Wunderground v.1.15,2013-02-21 16:36:00,
2013-02-21 08:46:00,46.2,33.5,30.15,NNW,330,0.0,0.0,61,0.00,,,0.00,341,Wunderground v.1.15,2013-02-21 16:46:00,
2013-02-21 08:51:00,46.5,34.2,30.15,NNW,330,0.0,0.0,62,0.00,,,0.00,355,Wunderground v.1.15,2013-02-21 16:51:00,
2013-02-21 08:56:00,46.8,34.0,30.15,NNW,342,0.0,0.0,61,0.00,,,0.00,373,Wunderground v.1.15,2013-02-21 16:56:00,
2013-02-21 09:06:00,47.6,34.4,30.15,NNW,336,0.0,0.0,60,0.00,,,0.00,406,Wunderground v.1.15,2013-02-21 17:06:00,
2013-02-21 09:16:00,47.6,34.4,30.15,North,351,1.0,3.0,60,0.00,,,0.00,301,Wunderground v.1.15,2013-02-21 17:16:00,
2013-02-21 09:21:00,47.7,34.9,30.15,NNW,332,1.0,1.0,61,0.00,,,0.00,114,Wunderground v.1.15,2013-02-21 17:21:00,
2013-02-21 09:26:00,47.9,34.3,30.15,NNW,335,0.0,1.0,59,0.00,,,0.00,128,Wunderground v.1.15,2013-02-21 17:26:00,
2013-02-21 09:36:00,48.3,35.0,30.15,NNE,29,0.0,0.0,60,0.00,,,0.00,47,Wunderground v.1.15,2013-02-21 17:36:00,
2013-02-21 09:46:00,48.9,35.6,30.16,NW,320,0.0,3.0,60,0.00,,,0.00,49,Wunderground v.1.15,2013-02-21 17:46:00,
2013-02-21 09:51:00,49.2,34.2,30.16,NNE,15,0.0,0.0,56,0.00,,,0.00,49,Wunderground v.1.15,2013-02-21 17:51:00,
2013-02-21 09:56:00,49.6,33.2,30.16,NNW,329,0.0,0.0,53,0.00,,,0.00,53,Wunderground v.1.15,2013-02-21 17:56:00,
2013-02-21 10:06:00,50.1,34.5,30.17,NNE,15,0.0,0.0,55,0.00,,,0.00,49,Wunderground v.1.15,2013-02-21 18:06:00,
2013-02-21 10:16:00,50.7,32.2,30.17,North,0,1.0,1.0,49,0.00,,,0.00,60,Wunderground v.1.15,2013-02-21 18:16:00,
2013-02-21 10:21:00,51.0,32.5,30.17,North,1,1.0,1.0,49,0.00,,,0.00,218,Wunderground v.1.15,2013-02-21 18:21:00,
2013-02-21 10:26:00,51.4,33.9,30.17,NW,310,0.0,1.0,51,0.00,,,0.00,508,Wunderground v.1.15,2013-02-21 18:26:00,
2013-02-21 10:36:00,52.5,33.9,30.18,NNW,339,0.0,0.0,49,0.00,,,0.00,624,Wunderground v.1.15,2013-02-21 18:36:00,
2013-02-21 10:46:00,53.1,31.7,30.18,North,352,1.0,1.0,44,0.00,,,0.00,642,Wunderground v.1.15,2013-02-21 18:46:00,
2013-02-21 10:51:00,53.2,31.8,30.18,North,359,1.0,1.0,44,0.00,,,0.00,654,Wunderground v.1.15,2013-02-21 18:51:00,
2013-02-21 10:56:00,53.6,32.8,30.18,NNE,12,1.0,4.0,45,0.00,,,0.00,661,Wunderground v.1.15,2013-02-21 18:56:00,
2013-02-21 11:06:00,54.2,32.2,30.17,NNW,342,1.0,3.0,43,0.00,,,0.00,673,Wunderground v.1.15,2013-02-21 19:06:00,
2013-02-21 11:11:00,54.5,30.6,30.17,North,350,1.0,1.0,40,0.00,,,0.00,680,Wunderground v.1.15,2013-02-21 19:11:00,
2013-02-21 11:16:00,54.8,30.9,30.17,North,357,1.0,1.0,40,0.00,,,0.00,687,Wunderground v.1.15,2013-02-21 19:16:00,
2013-02-21 11:26:00,55.3,32.6,30.17,NW,326,1.0,1.0,42,0.00,,,0.00,696,Wunderground v.1.15,2013-02-21 19:26:00,
2013-02-21 11:36:00,56.0,32.6,30.17,NNW,331,0.0,0.0,41,0.00,,,0.00,707,Wunderground v.1.15,2013-02-21 19:36:00,
2013-02-21 11:41:00,56.5,31.2,30.17,NNW,334,0.0,3.0,38,0.00,,,0.00,710,Wunderground v.1.15,2013-02-21 19:41:00,
2013-02-21 11:46:00,56.3,31.0,30.17,NNW,335,1.0,3.0,38,0.00,,,0.00,715,Wunderground v.1.15,2013-02-21 19:46:00,
2013-02-21 11:56:00,56.5,28.4,30.17,NNE,23,0.0,1.0,34,0.00,,,0.00,719,Wunderground v.1.15,2013-02-21 19:56:00,
2013-02-21 12:06:00,56.6,27.8,30.16,NNW,338,1.0,1.0,33,0.00,,,0.00,719,Wunderground v.1.15,2013-02-21 20:06:00,
2013-02-21 12:16:00,57.0,26.6,30.15,NNE,13,1.0,1.0,31,0.00,,,0.00,721,Wunderground v.1.15,2013-02-21 20:16:00,
2013-02-21 12:21:00,57.2,27.6,30.15,NNE,13,0.0,0.0,32,0.00,,,0.00,724,Wunderground v.1.15,2013-02-21 20:21:00,
2013-02-21 12:26:00,57.5,28.6,30.15,North,358,0.0,0.0,33,0.00,,,0.00,726,Wunderground v.1.15,2013-02-21 20:26:00,
2013-02-21 12:36:00,57.8,26.5,30.14,North,358,0.0,1.0,30,0.00,,,0.00,724,Wunderground v.1.15,2013-02-21 20:36:00,
2013-02-21 12:41:00,58.1,26.8,30.14,North,358,0.0,0.0,30,0.00,,,0.00,724,Wunderground v.1.15,2013-02-21 20:41:00,
2013-02-21 12:46:00,58.6,28.8,30.14,North,358,0.0,0.0,32,0.00,,,0.00,721,Wunderground v.1.15,2013-02-21 20:46:00,
2013-02-21 12:56:00,59.2,26.1,30.14,North,358,0.0,0.0,28,0.00,,,0.00,714,Wunderground v.1.15,2013-02-21 20:56:00,
2013-02-21 13:06:00,59.2,27.7,30.14,NW,310,0.0,0.0,30,0.00,,,0.00,707,Wunderground v.1.15,2013-02-21 21:06:00,
2013-02-21 13:11:00,59.6,28.1,30.14,NW,310,0.0,0.0,30,0.00,,,0.00,705,Wunderground v.1.15,2013-02-21 21:11:00,
2013-02-21 13:16:00,59.8,26.6,30.13,WSW,257,0.0,0.0,28,0.00,,,0.00,696,Wunderground v.1.15,2013-02-21 21:16:00,
2013-02-21 13:26:00,59.8,32.8,30.13,West,281,0.0,0.0,36,0.00,,,0.00,684,Wunderground v.1.15,2013-02-21 21:26:00,
2013-02-21 13:36:00,60.2,34.5,30.13,West,274,1.0,1.0,38,0.00,,,0.00,673,Wunderground v.1.15,2013-02-21 21:36:00,
2013-02-21 13:41:00,60.4,34.0,30.13,WNW,295,1.0,1.0,37,0.00,,,0.00,664,Wunderground v.1.15,2013-02-21 21:41:00,
2013-02-21 13:46:00,60.1,33.7,30.13,WNW,293,1.0,1.0,37,0.00,,,0.00,656,Wunderground v.1.15,2013-02-21 21:46:00,
2013-02-21 13:56:00,59.6,33.9,30.13,NW,304,1.0,1.0,38,0.00,,,0.00,645,Wunderground v.1.15,2013-02-21 21:56:00,
2013-02-21 14:01:00,59.6,36.5,30.12,WSW,257,1.0,1.0,42,0.00,,,0.00,636,Wunderground v.1.15,2013-02-21 22:01:00,
2013-02-21 14:11:00,59.6,34.6,30.12,WNW,286,1.0,4.0,39,0.00,,,0.00,438,Wunderground v.1.15,2013-02-21 22:11:00,
2013-02-21 14:16:00,59.3,34.3,30.13,West,281,1.0,4.0,39,0.00,,,0.00,204,Wunderground v.1.15,2013-02-21 22:16:00,
2013-02-21 14:26:00,58.6,34.3,30.13,WNW,285,1.0,5.0,40,0.00,,,0.00,49,Wunderground v.1.15,2013-02-21 22:26:00,
2013-02-21 14:31:00,58.3,35.9,30.13,SW,219,1.0,1.0,43,0.00,,,0.00,56,Wunderground v.1.15,2013-02-21 22:31:00,
2013-02-21 14:36:00,58.1,35.7,30.13,WNW,293,0.0,1.0,43,0.00,,,0.00,62,Wunderground v.1.15,2013-02-21 22:36:00,
2013-02-21 14:46:00,58.0,38.4,30.12,South,190,0.0,0.0,48,0.00,,,0.00,97,Wunderground v.1.15,2013-02-21 22:46:00,
2013-02-21 14:56:00,58.1,38.0,30.12,South,172,0.0,0.0,47,0.00,,,0.00,90,Wunderground v.1.15,2013-02-21 22:56:00,
2013-02-21 15:01:00,58.1,39.0,30.12,South,184,0.0,0.0,49,0.00,,,0.00,105,Wunderground v.1.15,2013-02-21 23:01:00,
2013-02-21 15:11:00,58.3,39.2,30.12,WNW,292,0.0,0.0,49,0.00,,,0.00,81,Wunderground v.1.15,2013-02-21 23:11:00,
2013-02-21 15:16:00,58.3,37.6,30.11,SSE,166,0.0,0.0,46,0.00,,,0.00,120,Wunderground v.1.15,2013-02-21 23:16:00,
2013-02-21 15:26:00,57.6,38.6,30.11,SSE,166,0.0,0.0,49,0.00,,,0.00,51,Wunderground v.1.15,2013-02-21 23:26:00,
2013-02-21 15:31:00,57.5,38.5,30.11,WSW,257,0.0,0.0,49,0.00,,,0.00,51,Wunderground v.1.15,2013-02-21 23:31:00,
2013-02-21 15:36:00,57.3,37.8,30.11,West,276,0.0,0.0,48,0.00,,,0.00,44,Wunderground v.1.15,2013-02-21 23:36:00,
2013-02-21 15:46:00,57.0,36.4,30.11,WNW,283,0.0,0.0,46,0.00,,,0.00,35,Wunderground v.1.15,2013-02-21 23:46:00,
2013-02-21 15:51:00,56.9,36.3,30.11,WNW,295,0.0,0.0,46,0.00,,,0.00,33,Wunderground v.1.15,2013-02-21 23:51:00,
2013-02-21 15:56:00,56.9,35.8,30.11,WNW,290,0.0,0.0,45,0.00,,,0.00,32,Wunderground v.1.15,2013-02-21 23:56:00,
2013-02-21 16:06:00,56.6,36.6,30.11,ENE,61,0.0,0.0,47,0.00,,,0.00,35,Wunderground v.1.15,2013-02-22 00:06:00,
2013-02-21 16:11:00,56.5,36.5,30.11,West,276,0.0,0.0,47,0.00,,,0.00,42,Wunderground v.1.15,2013-02-22 00:11:00,
2013-02-21 16:16:00,56.5,36.5,30.11,SSW,195,0.0,0.0,47,0.00,,,0.00,49,Wunderground v.1.15,2013-02-22 00:16:00,
2013-02-21 16:21:00,56.3,35.2,30.11,WNW,293,0.0,1.0,45,0.00,,,0.00,56,Wunderground v.1.15,2013-02-22 00:21:00,
2013-02-21 16:31:00,56.2,36.2,30.11,WNW,292,0.0,0.0,47,0.00,,,0.00,47,Wunderground v.1.15,2013-02-22 00:31:00,
2013-02-21 16:36:00,56.0,37.1,30.11,West,281,0.0,1.0,49,0.00,,,0.00,33,Wunderground v.1.15,2013-02-22 00:36:00,
2013-02-21 16:46:00,55.6,37.7,30.12,West,272,0.0,1.0,51,0.00,,,0.00,21,Wunderground v.1.15,2013-02-22 00:46:00,
2013-02-21 16:56:00,55.0,37.7,30.12,West,272,0.0,0.0,52,0.00,,,0.00,21,Wunderground v.1.15,2013-02-22 00:56:00,
2013-02-21 17:01:00,54.5,37.2,30.12,West,275,0.0,0.0,52,0.00,,,0.00,19,Wunderground v.1.15,2013-02-22 01:01:00,
2013-02-21 17:11:00,54.1,37.3,30.12,West,262,0.0,0.0,53,0.00,,,0.00,18,Wunderground v.1.15,2013-02-22 01:11:00,
2013-02-21 17:16:00,53.8,37.5,30.13,West,262,0.0,0.0,54,0.00,,,0.00,16,Wunderground v.1.15,2013-02-22 01:16:00,
2013-02-21 17:26:00,53.2,38.8,30.13,West,262,0.0,0.0,58,0.00,,,0.00,14,Wunderground v.1.15,2013-02-22 01:26:00,
2013-02-21 17:31:00,52.8,38.4,30.12,West,262,0.0,0.0,58,0.00,,,0.00,16,Wunderground v.1.15,2013-02-22 01:31:00,
2013-02-21 17:36:00,52.3,38.0,30.12,West,262,0.0,0.0,58,0.00,,,0.00,16,Wunderground v.1.15,2013-02-22 01:36:00,
2013-02-21 17:46:00,51.7,38.3,30.13,West,262,0.0,0.0,60,0.00,,,0.00,14,Wunderground v.1.15,2013-02-22 01:46:00,
2013-02-21 17:56:00,51.0,38.4,30.13,West,262,0.0,0.0,62,0.00,,,0.00,5,Wunderground v.1.15,2013-02-22 01:56:00,
2013-02-21 18:06:00,50.4,38.3,30.13,West,262,0.0,0.0,63,0.00,,,0.00,0,Wunderground v.1.15,2013-02-22 02:06:00,
2013-02-21 18:11:00,50.2,37.7,30.13,West,262,0.0,0.0,62,0.00,,,0.00,0,Wunderground v.1.15,2013-02-22 02:11:00,
2013-02-21 18:16:00,50.1,38.4,30.13,West,262,0.0,0.0,64,0.00,,,0.00,0,Wunderground v.1.15,2013-02-22 02:16:00,
2013-02-21 18:26:00,49.8,38.5,30.13,West,262,0.0,0.0,65,0.00,,,0.00,0,Wunderground v.1.15,2013-02-22 02:26:00,
2013-02-21 18:31:00,49.6,38.3,30.14,West,262,0.0,0.0,65,0.00,,,0.00,0,Wunderground v.1.15,2013-02-22 02:31:00,
2013-02-21 18:41:00,49.5,37.8,30.14,West,262,0.0,0.0,64,0.00,,,0.00,0,Wunderground v.1.15,2013-02-22 02:41:00,
2013-02-21 18:46:00,49.4,37.7,30.15,West,262,0.0,0.0,64,0.00,,,0.00,0,Wunderground v.1.15,2013-02-22 02:46:00,
2013-02-21 18:56:00,49.1,37.8,30.15,West,262,0.0,0.0,65,0.00,,,0.00,0,Wunderground v.1.15,2013-02-22 02:56:00,
2013-02-21 19:01:00,48.8,37.6,30.15,West,262,0.0,0.0,65,0.00,,,0.00,0,Wunderground v.1.15,2013-02-22 03:01:00,
2013-02-21 19:11:00,48.9,36.9,30.15,West,262,0.0,1.0,63,0.00,,,0.00,0,Wunderground v.1.15,2013-02-22 03:11:00,
2013-02-21 19:16:00,49.4,36.5,30.16,West,262,0.0,1.0,61,0.00,,,0.00,0,Wunderground v.1.15,2013-02-22 03:16:00,
2013-02-21 19:21:00,49.8,36.5,30.16,West,262,0.0,0.0,60,0.00,,,0.00,0,Wunderground v.1.15,2013-02-22 03:21:00,
2013-02-21 19:31:00,49.8,36.9,30.16,West,262,0.0,0.0,61,0.00,,,0.00,0,Wunderground v.1.15,2013-02-22 03:31:00,
2013-02-21 19:36:00,49.8,36.9,30.16,West,262,0.0,0.0,61,0.00,,,0.00,0,Wunderground v.1.15,2013-02-22 03:36:00,
2013-02-21 19:46:00,49.6,36.7,30.16,WNW,292,0.0,1.0,61,0.00,,,0.00,0,Wunderground v.1.15,2013-02-22 03:46:00,
2013-02-21 19:51:00,49.8,37.3,30.16,WNW,297,0.0,0.0,62,0.00,,,0.00,0,Wunderground v.1.15,2013-02-22 03:51:00,
2013-02-21 19:56:00,49.8,37.3,30.16,WNW,297,0.0,0.0,62,0.00,,,0.00,0,Wunderground v.1.15,2013-02-22 03:56:00,
2013-02-21 20:06:00,49.6,37.5,30.16,WNW,297,0.0,0.0,63,0.00,,,0.00,0,Wunderground v.1.15,2013-02-22 04:06:00,
2013-02-21 20:11:00,49.5,37.4,30.16,WNW,297,0.0,0.0,63,0.00,,,0.00,0,Wunderground v.1.15,2013-02-22 04:11:00,
2013-02-21 20:16:00,49.4,37.3,30.16,WNW,297,0.0,0.0,63,0.00,,,0.00,0,Wunderground v.1.15,2013-02-22 04:16:00,
2013-02-21 20:26:00,49.1,37.0,30.16,WNW,297,0.0,0.0,63,0.00,,,0.00,0,Wunderground v.1.15,2013-02-22 04:26:00,
2013-02-21 20:31:00,49.1,37.0,30.16,WNW,297,0.0,0.0,63,0.00,,,0.00,0,Wunderground v.1.15,2013-02-22 04:31:00,
2013-02-21 20:36:00,49.2,37.1,30.16,WNW,297,0.0,0.0,63,0.00,,,0.00,0,Wunderground v.1.15,2013-02-22 04:36:00,
2013-02-21 20:46:00,48.9,36.9,30.16,WNW,297,0.0,0.0,63,0.00,,,0.00,0,Wunderground v.1.15,2013-02-22 04:46:00,
2013-02-21 20:56:00,48.5,36.5,30.16,WNW,297,0.0,0.0,63,0.00,,,0.00,0,Wunderground v.1.15,2013-02-22 04:56:00,
2013-02-21 21:01:00,48.3,36.7,30.17,WNW,297,0.0,0.0,64,0.00,,,0.00,0,Wunderground v.1.15,2013-02-22 05:01:00,
2013-02-21 21:06:00,48.0,36.4,30.17,WNW,297,0.0,0.0,64,0.00,,,0.00,0,Wunderground v.1.15,2013-02-22 05:06:00,
2013-02-21 21:11:00,47.9,36.3,30.17,WNW,297,0.0,0.0,64,0.00,,,0.00,0,Wunderground v.1.15,2013-02-22 05:11:00,
2013-02-21 21:16:00,47.7,36.5,30.17,WNW,297,0.0,0.0,65,0.00,,,0.00,0,Wunderground v.1.15,2013-02-22 05:16:00,
2013-02-21 21:26:00,47.7,36.1,30.17,WNW,297,0.0,0.0,64,0.00,,,0.00,0,Wunderground v.1.15,2013-02-22 05:26:00,
2013-02-21 21:31:00,47.9,36.3,30.17,WNW,297,0.0,0.0,64,0.00,,,0.00,0,Wunderground v.1.15,2013-02-22 05:31:00,
2013-02-21 21:41:00,47.9,36.3,30.17,WNW,297,0.0,0.0,64,0.00,,,0.00,0,Wunderground v.1.15,2013-02-22 05:41:00,
2013-02-21 21:46:00,47.7,35.7,30.17,WNW,297,0.0,0.0,63,0.00,,,0.00,0,Wunderground v.1.15,2013-02-22 05:46:00,
2013-02-21 21:56:00,47.6,36.0,30.17,WNW,297,0.0,0.0,64,0.00,,,0.00,0,Wunderground v.1.15,2013-02-22 05:56:00,
2013-02-21 22:06:00,47.3,36.1,30.18,WNW,297,0.0,0.0,65,0.00,,,0.00,0,Wunderground v.1.15,2013-02-22 06:06:00,
2013-02-21 22:11:00,47.3,35.7,30.18,WNW,297,0.0,0.0,64,0.00,,,0.00,0,Wunderground v.1.15,2013-02-22 06:11:00,
2013-02-21 22:21:00,47.4,35.8,30.18,WNW,297,0.0,0.0,64,0.00,,,0.00,0,Wunderground v.1.15,2013-02-22 06:21:00,
2013-02-21 22:26:00,47.4,35.8,30.18,WNW,297,0.0,0.0,64,0.00,,,0.00,0,Wunderground v.1.15,2013-02-22 06:26:00,
2013-02-21 22:36:00,47.3,35.7,30.18,WNW,297,0.0,0.0,64,0.00,,,0.00,0,Wunderground v.1.15,2013-02-22 06:36:00,
2013-02-21 22:46:00,47.1,35.9,30.17,WNW,297,0.0,0.0,65,0.00,,,0.00,0,Wunderground v.1.15,2013-02-22 06:46:00,
2013-02-21 22:51:00,47.0,35.8,30.17,WNW,297,0.0,0.0,65,0.00,,,0.00,0,Wunderground v.1.15,2013-02-22 06:51:00,
2013-02-21 23:01:00,46.7,36.3,30.18,WNW,297,0.0,0.0,67,0.00,,,0.00,0,Wunderground v.1.15,2013-02-22 07:01:00,
2013-02-21 23:11:00,46.7,36.3,30.18,WNW,297,0.0,0.0,67,0.00,,,0.00,0,Wunderground v.1.15,2013-02-22 07:11:00,
2013-02-21 23:16:00,46.5,36.1,30.18,WNW,297,0.0,0.0,67,0.00,,,0.00,0,Wunderground v.1.15,2013-02-22 07:16:00,
2013-02-21 23:26:00,46.4,36.4,30.18,WNW,297,0.0,0.0,68,0.00,,,0.00,0,Wunderground v.1.15,2013-02-22 07:26:00,
2013-02-21 23:31:00,46.4,36.4,30.19,WNW,297,0.0,0.0,68,0.00,,,0.00,0,Wunderground v.1.15,2013-02-22 07:31:00,
2013-02-21 23:41:00,46.4,36.4,30.19,WNW,297,0.0,0.0,68,0.00,,,0.00,0,Wunderground v.1.15,2013-02-22 07:41:00,
2013-02-21 23:51:00,46.2,36.2,30.19,WNW,297,0.0,0.0,68,0.00,,,0.00,0,Wunderground v.1.15,2013-02-22 07:51:00,
2013-02-21 23:56:00,46.4,36.0,30.19,WNW,297,0.0,0.0,67,0.00,,,0.00,0,Wunderground v.1.15,2013-02-22 07:56:00,